CW3081 Weather Reports


Display with metric or nautical units.
time (UTC)temp
F
wind
direction
speed
MPH
gust
MPH
rain 1hr
in
rain 24hr
in
rain mn
in
humidity
%
barometer
mb
20260509023041 62 0 0.0 0.0 0.00 0.00 0.00 63 1010.8
20260509021548 62 189 0.0 0.0 0.00 0.00 0.00 62 1010.9
20260509020047 62 0 0.0 0.0 0.00 0.00 0.00 62 1010.9
20260509014543 62 0 0.0 0.0 0.00 0.00 0.00 63 1010.9
20260509013100 62 0 0.0 0.0 0.00 0.00 0.00 65 1010.7
20260509011554 62 0 0.0 0.0 0.00 0.00 0.00 66 1010.7
20260509010044 63 0 0.0 0.0 0.00 0.00 0.00 65 1010.7
20260509004605 65 0 0.0 0.0 0.00 0.00 0.00 62 1010.7
20260509003051 66 0 0.0 0.0 0.00 0.00 0.00 56 1010.8
20260509001546 68 0 0.0 0.0 0.00 0.00 0.00 55 1010.7
20260509000047 69 186 0.0 1.0 0.00 0.00 0.00 52 1010.8
20260508234549 70 0 0.0 0.0 0.00 0.00 0.00 48 1010.9
20260508233051 70 0 0.0 0.0 0.00 0.00 0.00 45 1011.1
20260508231543 71 186 0.0 1.0 0.00 0.00 0.00 44 1011.0
20260508230056 71 184 0.0 2.0 0.00 0.00 0.00 45 1011.1
20260508224547 71 193 1.0 2.0 0.00 0.00 0.00 42 1011.1
20260508223046 71 0 0.0 3.0 0.00 0.00 0.00 43 1011.1
20260508221550 72 236 0.0 1.0 0.00 0.00 0.00 41 1011.2
20260508220050 72 0 0.0 2.0 0.00 0.00 0.00 42 1011.4
20260508214549 72 218 1.0 2.0 0.00 0.00 0.00 40 1011.4
20260508213045 72 262 1.0 2.0 0.00 0.00 0.00 41 1011.6
20260508211544 72 195 0.0 2.0 0.00 0.00 0.00 41 1011.4
20260508210055 72 153 1.0 2.0 0.00 0.00 0.00 41 1011.6
20260508204552 72 160 1.0 2.0 0.00 0.00 0.00 40 1011.7
20260508203042 72 143 0.0 2.0 0.00 0.00 0.00 41 1012.0
20260508201546 72 157 1.0 3.0 0.00 0.00 0.00 39 1012.2
20260508200049 72 153 0.0 2.0 0.00 0.00 0.00 39 1012.6
20260508194548 71 250 1.0 3.0 0.00 0.00 0.00 41 1012.8
20260508193050 72 224 0.0 3.0 0.00 0.00 0.00 40 1013.0
20260508191546 72 152 1.0 3.0 0.00 0.00 0.00 41 1013.1
20260508190055 72 0 0.0 2.0 0.00 0.00 0.00 42 1013.5
20260508184600 72 141 1.0 3.0 0.00 0.00 0.00 39 1013.6
20260508183044 72 259 0.0 3.0 0.00 0.00 0.00 39 1013.6
20260508181555 72 184 1.0 2.0 0.00 0.00 0.00 39 1014.1
20260508180050 71 167 0.0 3.0 0.00 0.00 0.00 42 1014.5
20260508174547 70 181 0.0 2.0 0.00 0.00 0.00 44 1014.6
20260508173050 70 250 1.0 2.0 0.00 0.00 0.00 40 1015.1
20260508171545 69 146 1.0 2.0 0.00 0.00 0.00 41 1015.2
20260508170043 68 252 0.0 2.0 0.00 0.00 0.00 43 1015.6
20260508164555 67 154 0.0 3.0 0.00 0.00 0.00 48 1015.7
20260508163038 67 248 0.0 1.0 0.00 0.00 0.00 47 1015.9
20260508161551 66 203 0.0 2.0 0.00 0.00 0.00 47 1016.2
20260508160041 65 255 0.0 2.0 0.00 0.00 0.00 49 1016.4
20260508154550 64 0 0.0 2.0 0.00 0.00 0.00 51 1016.7
20260508153048 64 220 0.0 2.0 0.00 0.00 0.00 53 1016.9
20260508151546 63 194 0.0 2.0 0.00 0.00 0.00 60 1016.8
20260508150058 62 146 0.0 3.0 0.00 0.00 0.00 56 1016.9
20260508144603 61 148 1.0 3.0 0.00 0.00 0.00 59 1017.1
20260508143044 60 200 0.0 1.0 0.00 0.00 0.00 60 1017.3
20260508141551 59 5 0.0 1.0 0.00 0.00 0.00 67 1017.3
20260508140053 58 0 0.0 1.0 0.00 0.00 0.00 70 1017.4
20260508134553 56 354 0.0 0.0 0.00 0.00 0.00 72 1017.5
20260508133110 55 0 0.0 0.0 0.00 0.00 0.00 79 1017.5
20260508131550 54 0 0.0 0.0 0.00 0.00 0.00 87 1017.4
20260508130039 49 0 0.0 0.0 0.00 0.00 0.00 96 1017.5
20260508124549 44 0 0.0 0.0 0.00 0.00 0.00 95 1017.4
20260508123059 42 0 0.0 0.0 0.00 0.00 0.00 94 1017.2
20260508121546 41 0 0.0 0.0 0.00 0.00 0.00 94 1017.3
20260508120052 0 0.0 0.0 0.00 0.00 0.00 1017.0
20260508114549 0 0.0 0.0 0.00 0.00 0.00 1017.0
20260508113107 0 0.0 0.0 0.00 0.00 0.00 1016.7
20260508111544 0 0.0 0.0 0.00 0.00 0.00 1016.6
20260508110054 0 0.0 0.0 0.00 0.00 0.00 1016.4
20260508104541 40 0 0.0 0.0 0.00 0.00 0.00 93 1016.3
20260508103057 40 0 0.0 0.0 0.00 0.00 0.00 93 1016.1
20260508101600 40 0 0.0 0.0 0.00 0.00 0.00 93 1016.0
20260508100042 40 0 0.0 0.0 0.00 0.00 0.00 93 1015.9
20260508094545 41 0 0.0 0.0 0.00 0.00 0.00 93 1015.9
20260508093043 41 0 0.0 0.0 0.00 0.00 0.00 93 1015.7
20260508091550 41 0 0.0 0.0 0.00 0.00 0.00 92 1015.7
20260508090059 41 0 0.0 0.0 0.00 0.00 0.00 92 1015.7
20260508084545 42 0 0.0 0.0 0.00 0.00 0.00 92 1015.5
20260508083040 42 0 0.0 0.0 0.00 0.00 0.00 92 1015.7
20260508081543 42 0 0.0 0.0 0.00 0.00 0.00 92 1015.7
20260508080044 42 0 0.0 0.0 0.00 0.00 0.00 92 1015.7
20260508074545 43 0 0.0 0.0 0.00 0.00 0.00 92 1016.0
20260508073056 43 0 0.0 0.0 0.00 0.00 0.00 92 1016.1
20260508071555 43 0 0.0 0.0 0.00 0.00 0.00 92 1016.1
20260508070046 43 0 0.0 0.0 0.00 0.00 0.00 92 1016.2
20260508064543 43 0 0.0 0.0 0.00 0.00 0.00 92 1016.2
20260508063044 43 0 0.0 0.0 0.00 0.00 0.00 92 1016.3
20260508061551 44 0 0.0 1.0 0.00 0.00 0.00 91 1016.2
20260508060048 44 0 0.0 0.0 0.00 0.00 0.00 91 1016.4
20260508054545 45 0 0.0 0.0 0.00 0.00 0.00 91 1016.3
20260508053109 45 0 0.0 0.0 0.00 0.00 0.00 91 1016.5
20260508051543 45 0 0.0 0.0 0.00 0.00 0.00 91 1016.5
20260508050044 45 0 0.0 0.0 0.00 0.00 0.00 90 1016.3
20260508044538 46 0 0.0 0.0 0.00 0.00 0.00 90 1016.3
20260508043046 46 0 0.0 0.0 0.00 0.00 0.00 89 1016.4
20260508041609 47 0 0.0 0.0 0.00 0.00 0.00 89 1016.5
20260508040120 47 0 0.0 0.0 0.00 0.00 0.00 89 1016.7
20260508034547 47 0 0.0 0.0 0.00 0.00 0.00 88 1016.6
20260508033038 48 0 0.0 0.0 0.00 0.00 0.00 88 1016.7
20260508031547 48 0 0.0 0.0 0.00 0.00 0.00 87 1016.4
20260508030046 49 0 0.0 0.0 0.00 0.00 0.00 87 1016.3
20260508024550 50 0 0.0 0.0 0.00 0.00 0.00 86 1016.1